Back to catalog

STARLINK-35066

AliveCommunicationsSSO
NORAD 65386·PAYLOAD·🇺🇸 United States

Launched Aug 30, 2025 from Vandenberg Space Force Base

Loading…

Next Passes (next 24 hours)

TLE

FreshSource: CelesTrak SupGP

Epoch: Sep 14, 2026, 14:11 UTC

1 65386C 25191H   26257.59145833  .00019931  00000+0  61877-3 0  2577
2 65386  97.2840 123.7420 0001995  88.0394 340.4570 15.33424899    17

Track STARLINK-35066 in real time with AllMySat

Download on the App Store